Radiation Dose at Monitoring Post of Fukushima Daini Nuclear Power Station
Date,Time,MP-1(microSv/h),MP-2(microSv/h),MP-3(microSv/h),MP-4(microSv/h),MP-5(microSv/h),MP-6(microSv/h),MP-7(microSv/h),Wind Direction,Wind Velocity(m/s),Rain
2023/10/22,00:00,0.149,0.135,0.218,0.207,0.210,0.121,0.076,northwest,5.3,No
2023/10/22,00:10,0.150,0.134,0.219,0.206,0.211,0.122,0.077,north-northwest,3.2,No
2023/10/22,00:20,0.149,0.134,0.217,0.206,0.210,0.122,0.077,north-northwest,3.5,No
2023/10/22,00:30,0.149,0.135,0.218,0.206,0.210,0.121,0.077,north-northwest,2.3,No
2023/10/22,00:40,0.148,0.134,0.218,0.207,0.211,0.121,0.077,north-northwest,2.1,No
2023/10/22,00:50,0.149,0.135,0.219,0.206,0.210,0.121,0.077,north-northwest,2.9,No
2023/10/22,01:00,0.149,0.134,0.218,0.206,0.210,0.120,0.076,north,4.1,No
2023/10/22,01:10,0.149,0.134,0.218,0.207,0.210,0.121,0.077,north-northwest,3.7,No
2023/10/22,01:20,0.149,0.135,0.218,0.208,0.210,0.121,0.077,north-northwest,4.5,No
2023/10/22,01:30,0.150,0.134,0.218,0.206,0.211,0.121,0.077,northwest,6.6,No
2023/10/22,01:40,0.149,0.134,0.218,0.207,0.210,0.121,0.077,northwest,6.0,No
2023/10/22,01:50,0.149,0.134,0.217,0.206,0.210,0.121,0.077,northwest,8.4,No
2023/10/22,02:00,0.149,0.134,0.218,0.207,0.211,0.121,0.077,west-northwest,10.1,No
2023/10/22,02:10,0.149,0.134,0.218,0.206,0.211,0.121,0.077,west-northwest,10.3,No
2023/10/22,02:20,0.149,0.135,0.218,0.206,0.211,0.121,0.078,northwest,9.6,No
2023/10/22,02:30,0.150,0.134,0.218,0.206,0.211,0.120,0.077,west-northwest,11.2,No
2023/10/22,02:40,0.149,0.134,0.217,0.207,0.211,0.121,0.077,west-northwest,11.8,No
2023/10/22,02:50,0.149,0.135,0.218,0.206,0.210,0.121,0.076,west-northwest,10.6,No
2023/10/22,03:00,0.150,0.135,0.218,0.207,0.210,0.122,0.077,west-northwest,9.6,No
2023/10/22,03:10,0.149,0.136,0.218,0.207,0.211,0.121,0.076,west-northwest,8.1,No
2023/10/22,03:20,0.148,0.134,0.218,0.208,0.211,0.121,0.077,northwest,3.8,No
2023/10/22,03:30,0.150,0.135,0.219,0.206,0.210,0.122,0.077,north-northwest,5.0,No
2023/10/22,03:40,0.150,0.135,0.219,0.206,0.211,0.120,0.077,northwest,6.5,No
2023/10/22,03:50,0.149,0.134,0.218,0.207,0.211,0.121,0.078,northwest,5.2,No
2023/10/22,04:00,0.149,0.135,0.219,0.206,0.210,0.121,0.077,west-northwest,3.3,No
2023/10/22,04:10,0.149,0.134,0.218,0.206,0.210,0.121,0.077,west-northwest,2.7,No
2023/10/22,04:20,0.148,0.135,0.218,0.207,0.210,0.121,0.078,west-northwest,4.1,No
2023/10/22,04:30,0.149,0.134,0.217,0.206,0.210,0.121,0.077,north-northwest,3.4,No
2023/10/22,04:40,0.150,0.135,0.216,0.206,0.211,0.121,0.077,northwest,3.0,No
2023/10/22,04:50,0.148,0.134,0.219,0.206,0.210,0.121,0.077,north-northwest,2.1,No
2023/10/22,05:00,0.149,0.135,0.218,0.207,0.211,0.120,0.077,northwest,1.1,No
2023/10/22,05:10,0.149,0.135,0.218,0.206,0.210,0.121,0.077,north-northwest,0.6,No
2023/10/22,05:20,0.150,0.135,0.217,0.206,0.210,0.121,0.076,north,1.4,No
2023/10/22,05:30,0.149,0.135,0.218,0.207,0.211,0.120,0.077,north-northwest,1.6,No
2023/10/22,05:40,0.149,0.134,0.217,0.207,0.211,0.121,0.077,north-northwest,2.1,No
2023/10/22,05:50,0.150,0.135,0.218,0.206,0.209,0.121,0.077,west-northwest,1.3,No
2023/10/22,06:00,0.149,0.134,0.218,0.206,0.211,0.120,0.077,west,1.3,No
2023/10/22,06:10,0.149,0.134,0.219,0.206,0.211,0.121,0.077,west-northwest,0.6,No
2023/10/22,06:20,0.149,0.134,0.218,0.206,0.210,0.121,0.077,-,CALM,No
2023/10/22,06:30,0.150,0.135,0.217,0.207,0.210,0.122,0.076,-,CALM,No
2023/10/22,06:40,0.148,0.134,0.217,0.206,0.211,0.121,0.077,west,1.2,No
2023/10/22,06:50,0.150,0.135,0.218,0.207,0.209,0.121,0.078,-,CALM,No
2023/10/22,07:00,0.149,0.135,0.218,0.207,0.210,0.121,0.077,north,1.0,No
2023/10/22,07:10,0.149,0.134,0.217,0.205,0.210,0.120,0.076,-,CALM,No
2023/10/22,07:20,0.149,0.134,0.217,0.206,0.210,0.121,0.077,northeast,1.0,No
2023/10/22,07:30,0.150,0.134,0.219,0.205,0.210,0.121,0.077,-,CALM,No
2023/10/22,07:40,0.149,0.135,0.217,0.206,0.211,0.121,0.078,-,CALM,No
2023/10/22,07:50,0.148,0.135,0.217,0.205,0.210,0.121,0.077,west-northwest,1.1,No
2023/10/22,08:00,0.149,0.134,0.218,0.204,0.210,0.121,0.077,west,0.6,No
2023/10/22,08:10,0.149,0.134,0.217,0.205,0.212,0.121,0.077,-,CALM,No
2023/10/22,08:20,0.148,0.135,0.219,0.205,0.210,0.120,0.077,-,CALM,No
2023/10/22,08:30,0.151,0.134,0.217,0.206,0.210,0.120,0.076,east-southeast,1.5,No
2023/10/22,08:40,0.148,0.135,0.216,0.205,0.210,0.121,0.077,east-southeast,1.4,No
2023/10/22,08:50,0.149,0.134,0.217,0.206,0.211,0.120,0.077,east-southeast,0.6,No
2023/10/22,09:00,0.150,0.133,0.218,0.206,0.211,0.121,0.076,east-southeast,1.9,No
2023/10/22,09:10,0.148,0.134,0.217,0.205,0.209,0.121,0.078,east-southeast,1.6,No
2023/10/22,09:20,0.149,0.134,0.217,0.206,0.211,0.121,0.077,east-southeast,1.2,No
2023/10/22,09:30,0.148,0.134,0.217,0.206,0.211,0.121,0.077,southeast,1.8,No
2023/10/22,09:40,0.149,0.134,0.216,0.205,0.208,0.121,0.078,southeast,1.8,No
2023/10/22,09:50,0.147,0.134,0.217,0.206,0.211,0.121,0.077,east-southeast,2.7,No
2023/10/22,10:00,0.147,0.134,0.218,0.204,0.208,0.120,0.077,east-northeast,1.1,No
2023/10/22,10:10,0.148,0.134,0.218,0.207,0.211,0.121,0.078,west,3.9,No
2023/10/22,10:20,0.146,0.134,0.214,0.206,0.209,0.121,0.077,west-northwest,5.8,No
2023/10/22,10:30,0.148,0.133,0.217,0.205,0.208,0.121,0.076,west-northwest,7.6,No
2023/10/22,10:40,0.148,0.135,0.216,0.206,0.210,0.121,0.077,west-northwest,8.1,No
2023/10/22,10:50,0.147,0.134,0.215,0.205,0.209,0.121,0.077,west-northwest,7.9,No
2023/10/22,11:00,0.149,0.135,0.217,0.205,0.208,0.120,0.077,west-northwest,7.4,No
2023/10/22,11:10,0.149,0.134,0.217,0.207,0.211,0.121,0.076,west,8.6,No
2023/10/22,11:20,0.147,0.134,0.216,0.205,0.209,0.120,0.077,west,11.4,No
2023/10/22,11:30,0.149,0.135,0.219,0.205,0.208,0.121,0.078,west,10.7,No
2023/10/22,11:40,0.149,0.133,0.218,0.207,0.211,0.121,0.077,west,7.0,No
2023/10/22,11:50,0.148,0.134,0.216,0.206,0.210,0.120,0.076,west-northwest,7.0,No
2023/10/22,12:00,0.149,0.134,0.218,0.204,0.210,0.121,0.076,west-northwest,4.3,No
2023/10/22,12:10,0.147,0.134,0.217,0.206,0.211,0.120,0.077,west-northwest,6.0,No
2023/10/22,12:20,0.148,0.134,0.215,0.206,0.209,0.119,0.077,west-northwest,7.1,No
2023/10/22,12:30,0.150,0.134,0.217,0.204,0.208,0.121,0.077,west-northwest,6.2,No
2023/10/22,12:40,0.149,0.134,0.218,0.206,0.210,0.122,0.077,west,6.9,No
2023/10/22,12:50,0.148,0.133,0.217,0.205,0.209,0.121,0.076,northwest,5.2,No
2023/10/22,13:00,0.149,0.134,0.216,0.204,0.208,0.120,0.075,west-northwest,6.3,No
2023/10/22,13:10,0.148,0.135,0.218,0.205,0.210,0.122,0.077,west-northwest,6.3,No
2023/10/22,13:20,0.148,0.134,0.217,0.206,0.210,0.121,0.077,west-northwest,6.4,No
2023/10/22,13:30,0.150,0.134,0.216,0.205,0.209,0.121,0.077,northwest,3.9,No
2023/10/22,13:40,0.149,0.135,0.216,0.205,0.209,0.121,0.077,west-northwest,3.0,No
2023/10/22,13:50,0.148,0.135,0.218,0.208,0.211,0.120,0.077,west,3.2,No
2023/10/22,14:00,0.148,0.134,0.217,0.206,0.210,0.121,0.077,west-northwest,2.2,No
2023/10/22,14:10,0.149,0.134,0.218,0.205,0.208,0.121,0.077,west-northwest,3.3,No
2023/10/22,14:20,0.148,0.134,0.218,0.206,0.211,0.121,0.077,west,2.4,No
2023/10/22,14:30,0.147,0.135,0.219,0.206,0.211,0.121,0.078,west,4.6,No
2023/10/22,14:40,0.150,0.134,0.219,0.208,0.211,0.120,0.077,west,3.9,No
2023/10/22,14:50,0.148,0.135,0.218,0.206,0.213,0.121,0.077,west-southwest,3.4,No
2023/10/22,15:00,0.149,0.135,0.219,0.208,0.211,0.121,0.077,west-southwest,2.3,No
2023/10/22,15:10,0.150,0.134,0.219,0.207,0.213,0.121,0.077,west,2.8,No
2023/10/22,15:20,0.150,0.135,0.217,0.208,0.211,0.121,0.077,west,0.8,No
2023/10/22,15:30,0.151,0.134,0.218,0.207,0.212,0.122,0.077,west-southwest,1.6,No
2023/10/22,15:40,0.149,0.135,0.218,0.208,0.209,0.121,0.077,south-southwest,2.5,No
2023/10/22,15:50,0.150,0.135,0.218,0.206,0.212,0.121,0.077,south-southwest,2.4,No
2023/10/22,16:00,0.150,0.135,0.217,0.208,0.210,0.121,0.077,south,4.1,No
2023/10/22,16:10,0.151,0.135,0.220,0.205,0.212,0.121,0.077,south,3.1,No
2023/10/22,16:20,0.150,0.134,0.218,0.208,0.210,0.121,0.076,south-southwest,2.3,No
2023/10/22,16:30,0.149,0.134,0.218,0.206,0.211,0.121,0.077,south,2.1,No
2023/10/22,16:40,0.149,0.136,0.219,0.208,0.210,0.120,0.077,south-southwest,3.4,No
2023/10/22,16:50,0.150,0.135,0.218,0.207,0.211,0.121,0.077,south-southwest,3.0,No
2023/10/22,17:00,0.149,0.134,0.219,0.207,0.210,0.122,0.078,southwest,2.4,No
2023/10/22,17:10,0.148,0.135,0.219,0.207,0.213,0.121,0.077,southwest,2.8,No
2023/10/22,17:20,0.149,0.135,0.218,0.206,0.211,0.122,0.077,southwest,2.7,No
2023/10/22,17:30,0.150,0.135,0.219,0.208,0.211,0.121,0.077,southwest,2.6,No
2023/10/22,17:40,0.150,0.136,0.220,0.207,0.212,0.122,0.078,west-southwest,2.0,No
2023/10/22,17:50,0.148,0.135,0.218,0.207,0.210,0.121,0.077,west-southwest,1.0,No
2023/10/22,18:00,0.150,0.136,0.219,0.208,0.213,0.121,0.077,west-southwest,1.6,No
2023/10/22,18:10,0.150,0.134,0.218,0.207,0.212,0.122,0.078,southwest,1.4,No
2023/10/22,18:20,0.149,0.135,0.219,0.208,0.211,0.121,0.078,southwest,1.3,No
2023/10/22,18:30,0.149,0.135,0.219,0.207,0.211,0.121,0.078,southwest,1.2,No
2023/10/22,18:40,0.150,0.136,0.219,0.206,0.210,0.122,0.078,southwest,1.0,No
2023/10/22,18:50,0.150,0.135,0.218,0.207,0.212,0.121,0.077,west-southwest,1.4,No
2023/10/22,19:00,0.150,0.136,0.219,0.208,0.211,0.122,0.077,southwest,1.0,No
2023/10/22,19:10,0.150,0.135,0.220,0.207,0.211,0.120,0.077,west-southwest,1.2,No
2023/10/22,19:20,0.149,0.136,0.220,0.207,0.211,0.122,0.078,southwest,1.5,No
2023/10/22,19:30,0.151,0.134,0.219,0.207,0.211,0.122,0.077,southwest,0.9,No
2023/10/22,19:40,0.150,0.136,0.219,0.206,0.212,0.122,0.078,south-southwest,0.6,No
2023/10/22,19:50,0.150,0.135,0.219,0.207,0.211,0.122,0.078,south-southwest,1.3,No
2023/10/22,20:00,0.151,0.135,0.219,0.207,0.211,0.122,0.077,southwest,1.2,No
2023/10/22,20:10,0.150,0.135,0.219,0.208,0.212,0.123,0.076,south-southwest,1.3,No
2023/10/22,20:20,0.150,0.135,0.220,0.207,0.211,0.121,0.078,southwest,2.3,No
2023/10/22,20:30,0.150,0.136,0.219,0.207,0.211,0.122,0.078,southwest,1.9,No
2023/10/22,20:40,0.150,0.136,0.218,0.208,0.213,0.122,0.078,southwest,1.9,No
2023/10/22,20:50,0.149,0.135,0.218,0.207,0.211,0.122,0.078,southwest,1.8,No
2023/10/22,21:00,0.151,0.135,0.219,0.208,0.211,0.122,0.078,southwest,1.1,No
2023/10/22,21:10,0.149,0.135,0.218,0.207,0.211,0.122,0.078,south-southwest,1.3,No
2023/10/22,21:20,0.150,0.135,0.219,0.208,0.211,0.122,0.077,south-southwest,2.1,No
2023/10/22,21:30,0.151,0.136,0.220,0.206,0.211,0.121,0.077,south,1.6,No
2023/10/22,21:40,0.149,0.135,0.220,0.208,0.210,0.122,0.078,south-southwest,0.9,No
2023/10/22,21:50,0.149,0.135,0.219,0.208,0.210,0.122,0.078,-,CALM,No
2023/10/22,22:00,0.150,0.135,0.218,0.207,0.211,0.122,0.077,west-northwest,1.5,No
2023/10/22,22:10,0.149,0.135,0.218,0.208,0.211,0.122,0.078,west-northwest,5.0,No
2023/10/22,22:20,0.149,0.135,0.219,0.208,0.211,0.122,0.078,west-northwest,5.0,No
2023/10/22,22:30,0.149,0.136,0.219,0.207,0.210,0.121,0.078,west,7.6,No
2023/10/22,22:40,0.149,0.135,0.217,0.208,0.210,0.122,0.078,west,7.5,No
2023/10/22,22:50,0.151,0.135,0.218,0.208,0.212,0.121,0.078,west-southwest,5.5,No
2023/10/22,23:00,0.149,0.135,0.218,0.207,0.211,0.121,0.077,west-southwest,3.5,No
2023/10/22,23:10,0.149,0.134,0.218,0.206,0.211,0.121,0.078,west,3.0,No
2023/10/22,23:20,0.149,0.135,0.219,0.207,0.211,0.121,0.078,west,2.8,No
2023/10/22,23:30,0.150,0.135,0.218,0.207,0.210,0.121,0.077,west,3.6,No
2023/10/22,23:40,0.150,0.134,0.219,0.207,0.212,0.122,0.077,west-northwest,3.6,No
2023/10/22,23:50,0.149,0.135,0.219,0.207,0.209,0.121,0.078,west,8.2,No
